• Em Portugal
  • Lista de países
  • Para 7 dias
  • Temperatura da água
  • Mapas de satélite
  • Mapa do tempo
  • Widgets de tempo
  • user-avatar
    Iniciar Sessão

    Previsão horária em Mendoza

    Hoje, 22 Abril, Domingo

    Tempo Temperatura Precipitação Vento Pressão Humidade
    00:00 +24°C° 0 mm 2 m/s 695 mmHg 44%
    01:00 +24°C° 0 mm 2 m/s 695 mmHg 41%
    02:00 +23°C° 0 mm 2 m/s 695 mmHg 40%
    03:00 +23°C° 0 mm 2 m/s 695 mmHg 39%
    04:00 +21°C° 0 mm 2 m/s 695 mmHg 38%
    05:00 +22°C° 0 mm 3 m/s 695 mmHg 35%
    06:00 +22°C° 0 mm 3 m/s 696 mmHg 32%
    07:00 +22°C° 0 mm 4 m/s 696 mmHg 29%
    08:00 +25°C° 0 mm 4 m/s 697 mmHg 30%
    09:00 +26°C° 0 mm 5 m/s 697 mmHg 31%
    10:00 +28°C° 0 mm 6 m/s 698 mmHg 33%
    11:00 +28°C° 0 mm 6 m/s 698 mmHg 34%
    12:00 +28°C° 0 mm 7 m/s 697 mmHg 36%
    13:00 +28°C° 0 mm 7 m/s 697 mmHg 37%
    14:00 +28°C° 0 mm 7 m/s 697 mmHg 40%
    15:00 +27°C° 0 mm 7 m/s 697 mmHg 42%
    16:00 +26°C° 0 mm 7 m/s 697 mmHg 45%
    17:00 +24°C° 0 mm 6 m/s 698 mmHg 47%
    18:00 +23°C° 0 mm 5 m/s 698 mmHg 50%
    19:00 +21°C° 0 mm 4 m/s 699 mmHg 52%
    20:00 +21°C° 0 mm 4 m/s 699 mmHg 52%
    21:00 +20°C° 0 mm 4 m/s 699 mmHg 53%
    22:00 +20°C° 0 mm 4 m/s 699 mmHg 53%
    23:00 +19°C° 0 mm 4 m/s 699 mmHg 55%

    Amanhã, 23 Abril, Segunda-feira

    Tempo Temperatura Precipitação Vento Pressão Humidade
    00:00 +19°C° 0 mm 4 m/s 699 mmHg 57%
    01:00 +18°C° 0 mm 4 m/s 699 mmHg 59%
    02:00 +18°C° 0 mm 3 m/s 699 mmHg 62%
    03:00 +18°C° 0 mm 3 m/s 698 mmHg 66%
    04:00 +17°C° 0 mm 3 m/s 698 mmHg 69%
    05:00 +18°C° 0 mm 3 m/s 698 mmHg 69%
    06:00 +18°C° 0 mm 3 m/s 698 mmHg 69%
    07:00 +18°C° 0 mm 3 m/s 699 mmHg 69%
    08:00 +19°C° 0 mm 3 m/s 699 mmHg 67%
    09:00 +20°C° 0 mm 3 m/s 699 mmHg 65%
    10:00 +21°C° 0 mm 3 m/s 699 mmHg 63%
    11:00 +22°C° 0 mm 3 m/s 698 mmHg 61%
    12:00 +24°C° 0 mm 3 m/s 698 mmHg 60%
    13:00 +24°C° 0 mm 3 m/s 698 mmHg 58%
    14:00 +24°C° 0 mm 3 m/s 698 mmHg 58%
    15:00 +24°C° 0 mm 3 m/s 698 mmHg 59%
    16:00 +24°C° 0 mm 3 m/s 698 mmHg 59%
    17:00 +22°C° 0 mm 3 m/s 698 mmHg 65%
    18:00 +21°C° 0 mm 3 m/s 699 mmHg 70%
    19:00 +20°C° 0 mm 3 m/s 699 mmHg 75%
    20:00 +20°C° 0 mm 3 m/s 699 mmHg 77%
    21:00 +20°C° 0 mm 3 m/s 699 mmHg 80%
    22:00 +20°C° 0 mm 3 m/s 700 mmHg 82%
    23:00 +20°C° 0 mm 3 m/s 699 mmHg 82%

    Depois de amanhã, 24 Abril, Terça-feira

    Tempo Temperatura Precipitação Vento Pressão Humidade
    00:00 +19°C° 0 mm 3 m/s 699 mmHg 82%
    01:00 +19°C° 0 mm 3 m/s 699 mmHg 82%
    02:00 +19°C° 0,1 mm 3 m/s 698 mmHg 82%
    03:00 +19°C° 0,1 mm 3 m/s 698 mmHg 82%
    04:00 +19°C° 0,1 mm 3 m/s 698 mmHg 82%
    05:00 +19°C° 0,1 mm 3 m/s 698 mmHg 81%
    06:00 +19°C° 0,1 mm 2 m/s 699 mmHg 80%
    07:00 +19°C° 0,1 mm 2 m/s 699 mmHg 78%
    08:00 +20°C° 0 mm 3 m/s 699 mmHg 73%
    09:00 +21°C° 0 mm 3 m/s 699 mmHg 68%
    10:00 +22°C° 0 mm 3 m/s 699 mmHg 63%
    11:00 +22°C° 0 mm 3 m/s 699 mmHg 61%
    12:00 +24°C° 0 mm 3 m/s 698 mmHg 58%
    13:00 +25°C° 0 mm 3 m/s 698 mmHg 56%
    14:00 +25°C° 0 mm 3 m/s 698 mmHg 55%
    15:00 +25°C° 0 mm 3 m/s 698 mmHg 55%
    16:00 +25°C° 0 mm 2 m/s 698 mmHg 54%
    17:00 +24°C° 0 mm 3 m/s 699 mmHg 61%
    18:00 +22°C° 0 mm 3 m/s 699 mmHg 67%
    19:00 +21°C° 0 mm 3 m/s 700 mmHg 73%
    20:00 +20°C° 0 mm 3 m/s 700 mmHg 74%
    21:00 +20°C° 0 mm 3 m/s 700 mmHg 76%
    22:00 +20°C° 0 mm 3 m/s 700 mmHg 77%
    23:00 +19°C° 0,1 mm 3 m/s 700 mmHg 79%

    25 Abril, Quarta-feira

    Tempo Temperatura Precipitação Vento Pressão Humidade
    00:00 +19°C° 0,1 mm 3 m/s 700 mmHg 80%
    01:00 +19°C° 0,1 mm 3 m/s 699 mmHg 81%
    02:00 +19°C° 0,1 mm 3 m/s 699 mmHg 80%
    03:00 +18°C° 0,1 mm 3 m/s 699 mmHg 80%
    04:00 +18°C° 0,1 mm 3 m/s 698 mmHg 79%
    05:00 +18°C° 0,1 mm 3 m/s 699 mmHg 78%
    06:00 +18°C° 0,1 mm 2 m/s 699 mmHg 76%
    07:00 +19°C° 0,1 mm 2 m/s 699 mmHg 74%
    08:00 +20°C° 0 mm 2 m/s 699 mmHg 68%
    09:00 +21°C° 0 mm 2 m/s 699 mmHg 62%
    10:00 +24°C° 0 mm 2 m/s 699 mmHg 55%
    11:00 +25°C° 0 mm 2 m/s 698 mmHg 53%
    12:00 +26°C° 0 mm 3 m/s 697 mmHg 50%
    13:00 +26°C° 0 mm 3 m/s 697 mmHg 48%
    14:00 +26°C° 0 mm 3 m/s 696 mmHg 49%
    15:00 +26°C° 0 mm 3 m/s 696 mmHg 50%
    16:00 +26°C° 0 mm 3 m/s 696 mmHg 51%
    17:00 +25°C° 0 mm 2 m/s 696 mmHg 58%
    18:00 +24°C° 0 mm 2 m/s 696 mmHg 64%
    19:00 +23°C° 0 mm 2 m/s 696 mmHg 71%
    20:00 +21°C° 0 mm 2 m/s 696 mmHg 69%
    21:00 +21°C° 0 mm 2 m/s 696 mmHg 66%
    22:00 +21°C° 0 mm 2 m/s 696 mmHg 64%
    23:00 +21°C° 0 mm 2 m/s 695 mmHg 63%

    26 Abril, Quinta-feira

    Tempo Temperatura Precipitação Vento Pressão Humidade
    00:00 +20°C° 0 mm 2 m/s 695 mmHg 61%
    01:00 +20°C° 0 mm 2 m/s 694 mmHg 59%
    02:00 +19°C° 0 mm 2 m/s 694 mmHg 59%
    03:00 +19°C° 0 mm 2 m/s 693 mmHg 58%
    04:00 +19°C° 0 mm 2 m/s 693 mmHg 58%
    05:00 +19°C° 0 mm 2 m/s 693 mmHg 56%
    06:00 +19°C° 0 mm 2 m/s 693 mmHg 54%
    07:00 +20°C° 0 mm 2 m/s 693 mmHg 52%
    08:00 +22°C° 0 mm 3 m/s 693 mmHg 48%
    09:00 +25°C° 0 mm 3 m/s 693 mmHg 44%
    10:00 +27°C° 0 mm 3 m/s 693 mmHg 40%
    11:00 +28°C° 0 mm 4 m/s 692 mmHg 33%
    12:00 +30°C° 0 mm 4 m/s 692 mmHg 27%
    13:00 +32°C° 0 mm 5 m/s 691 mmHg 20%
    14:00 +32°C° 0 mm 5 m/s 691 mmHg 18%
    15:00 +33°C° 0 mm 5 m/s 691 mmHg 16%
    16:00 +33°C° 0 mm 5 m/s 691 mmHg 14%
    17:00 +30°C° 0 mm 5 m/s 692 mmHg 15%
    18:00 +27°C° 0 mm 5 m/s 692 mmHg 17%
    19:00 +25°C° 0 mm 5 m/s 693 mmHg 19%
    20:00 +25°C° 0 mm 5 m/s 693 mmHg 17%
    21:00 +23°C° 0 mm 6 m/s 693 mmHg 15%
    22:00 +23°C° 0 mm 6 m/s 694 mmHg 13%
    23:00 +22°C° 0 mm 6 m/s 694 mmHg 14%

    27 Abril, Sexta-feira

    Tempo Temperatura Precipitação Vento Pressão Humidade
    00:00 +22°C° 0 mm 6 m/s 695 mmHg 14%
    01:00 +21°C° 0 mm 6 m/s 695 mmHg 15%
    02:00 +20°C° 0 mm 6 m/s 696 mmHg 21%
    03:00 +17°C° 0 mm 6 m/s 696 mmHg 27%
    04:00 +15°C° 0 mm 6 m/s 697 mmHg 33%
    05:00 +15°C° 0 mm 5 m/s 697 mmHg 34%
    06:00 +15°C° 0 mm 5 m/s 698 mmHg 35%
    07:00 +14°C° 0 mm 4 m/s 699 mmHg 36%
    08:00 +15°C° 0 mm 4 m/s 699 mmHg 35%
    09:00 +17°C° 0 mm 4 m/s 699 mmHg 34%
    10:00 +17°C° 0 mm 5 m/s 699 mmHg 32%
    11:00 +17°C° 0 mm 5 m/s 699 mmHg 31%
    12:00 +19°C° 0 mm 5 m/s 698 mmHg 30%
    13:00 +20°C° 0 mm 5 m/s 698 mmHg 28%
    14:00 +19°C° 0 mm 4 m/s 698 mmHg 30%
    15:00 +19°C° 0 mm 4 m/s 698 mmHg 31%
    16:00 +19°C° 0 mm 4 m/s 698 mmHg 32%
    17:00 +18°C° 0 mm 4 m/s 698 mmHg 35%
    18:00 +17°C° 0 mm 3 m/s 698 mmHg 37%
    19:00 +15°C° 0 mm 2 m/s 699 mmHg 40%
    20:00 +14°C° 0 mm 3 m/s 699 mmHg 41%
    21:00 +13°C° 0 mm 3 m/s 699 mmHg 43%
    22:00 +13°C° 0 mm 3 m/s 699 mmHg 44%
    23:00 +12°C° 0 mm 3 m/s 698 mmHg 45%
    Mostrar mais